DLH756 KJFK-KBOS

Flight info

Callsign DLH756
Flight time 0h 49m
Altitude 21000
Route MERIT ROBUC3
Aircraft A346/H-SDE2E3FGHIJ3J4J5M1RWXY/LB1D1

Departure

Time 2026-05-09 15:06
Airport John F. Kennedy International Airport (KJFK)

Arrival

Time 2026-05-09 15:55
Airport Boston Logan International Airport (KBOS)
Time Latitude Longitude Altitude Speed Heading
2026-05-09 14:25 40.64152 -73.79125 28 ft 0 kts 307°
2026-05-09 14:46 40.64147 -73.79115 29 ft 4 kts 291°
2026-05-09 14:46 40.64147 -73.79095 28 ft 4 kts 263°
2026-05-09 14:47 40.64148 -73.79061 28 ft 4 kts 274°
2026-05-09 14:47 40.64145 -73.79026 27 ft 4 kts 272°
2026-05-09 14:47 40.64147 -73.78997 27 ft 0 kts 252°
2026-05-09 14:54 40.64146 -73.79001 29 ft 2 kts 252°
2026-05-09 14:54 40.64143 -73.79013 29 ft 4 kts 252°
2026-05-09 14:55 40.64124 -73.79061 29 ft 8 kts 234°
2026-05-09 14:55 40.64084 -73.79120 29 ft 9 kts 226°
2026-05-09 14:55 40.64059 -73.79153 29 ft 0 kts 224°
2026-05-09 14:55 40.64052 -73.79161 29 ft 3 kts 224°
2026-05-09 14:56 40.64030 -73.79191 29 ft 6 kts 225°
2026-05-09 14:56 40.63990 -73.79243 29 ft 10 kts 225°
2026-05-09 14:56 40.63948 -73.79297 29 ft 4 kts 225°
2026-05-09 14:56 40.63920 -73.79318 29 ft 5 kts 180°
2026-05-09 14:57 40.63882 -73.79284 29 ft 9 kts 127°
2026-05-09 14:57 40.63846 -73.79204 29 ft 12 kts 120°
2026-05-09 14:57 40.63800 -73.79102 29 ft 14 kts 121°
2026-05-09 14:57 40.63743 -73.78978 29 ft 17 kts 121°
2026-05-09 14:58 40.63683 -73.78843 30 ft 16 kts 121°
2026-05-09 14:58 40.63620 -73.78704 30 ft 19 kts 121°
2026-05-09 14:58 40.63550 -73.78550 31 ft 18 kts 121°
2026-05-09 14:58 40.63481 -73.78399 30 ft 19 kts 121°
2026-05-09 14:59 40.63423 -73.78269 30 ft 16 kts 121°
2026-05-09 14:59 40.63378 -73.78170 30 ft 10 kts 120°
2026-05-09 14:59 40.63341 -73.78073 30 ft 13 kts 109°
2026-05-09 14:59 40.63333 -73.77958 30 ft 14 kts 82°
2026-05-09 15:00 40.63375 -73.77826 30 ft 17 kts 49°
2026-05-09 15:00 40.63478 -73.77731 29 ft 17 kts 31°
2026-05-09 15:00 40.63587 -73.77646 29 ft 20 kts 31°
2026-05-09 15:00 40.63706 -73.77553 28 ft 21 kts 30°
2026-05-09 15:01 40.63961 -73.77353 29 ft 20 kts 30°
2026-05-09 15:01 40.64078 -73.77261 29 ft 19 kts 31°
2026-05-09 15:01 40.64190 -73.77174 30 ft 20 kts 31°
2026-05-09 15:02 40.64293 -73.77093 29 ft 15 kts 31°
2026-05-09 15:02 40.64388 -73.77019 29 ft 16 kts 30°
2026-05-09 15:02 40.64496 -73.76983 28 ft 15 kts 13°
2026-05-09 15:02 40.64585 -73.76928 28 ft 12 kts 28°
2026-05-09 15:03 40.64650 -73.76881 29 ft 12 kts 29°
2026-05-09 15:03 40.64729 -73.76819 29 ft 15 kts 31°
2026-05-09 15:03 40.64824 -73.76742 30 ft 17 kts 31°
2026-05-09 15:03 40.64936 -73.76653 30 ft 19 kts 31°
2026-05-09 15:04 40.65048 -73.76565 30 ft 12 kts 30°
2026-05-09 15:04 40.65093 -73.76522 30 ft 5 kts 58°
2026-05-09 15:06 40.62493 -73.78355 336 ft 189 kts 208°
2026-05-09 15:06 40.61377 -73.79222 1216 ft 181 kts 212°
2026-05-09 15:06 40.60322 -73.80030 2226 ft 172 kts 212°
2026-05-09 15:06 40.59235 -73.80777 2777 ft 185 kts 205°
2026-05-09 15:07 40.57862 -73.80859 3098 ft 218 kts 170°
2026-05-09 15:07 40.56494 -73.79743 3597 ft 251 kts 139°
2026-05-09 15:07 40.55609 -73.77629 4192 ft 280 kts 109°
2026-05-09 15:07 40.55547 -73.75001 4983 ft 296 kts 81°
2026-05-09 15:08 40.56377 -73.72506 5908 ft 303 kts 56°
2026-05-09 15:08 40.59170 -73.68302 7744 ft 309 kts 48°
2026-05-09 15:08 40.60644 -73.66271 8634 ft 314 kts 47°
2026-05-09 15:09 40.62196 -73.64158 9518 ft 319 kts 47°
2026-05-09 15:10 40.73666 -73.48218 13687 ft 348 kts 47°
2026-05-09 15:11 40.75306 -73.45853 14295 ft 352 kts 47°
2026-05-09 15:11 40.76956 -73.43439 14910 ft 355 kts 46°
2026-05-09 15:11 40.78844 -73.41345 15542 ft 355 kts 24°
2026-05-09 15:11 40.81133 -73.40298 16169 ft 345 kts
2026-05-09 15:12 40.83477 -73.40394 16757 ft 333 kts 342°
2026-05-09 15:12 40.85735 -73.41009 16995 ft 331 kts 338°
2026-05-09 15:12 40.87968 -73.41720 16992 ft 329 kts 337°
2026-05-09 15:12 40.90235 -73.42249 16964 ft 340 kts 353°
2026-05-09 15:13 40.92590 -73.41559 16984 ft 355 kts 17°
2026-05-09 15:13 40.94836 -73.40136 16996 ft 360 kts 22°
2026-05-09 15:13 40.97051 -73.38595 16994 ft 360 kts 22°
2026-05-09 15:13 40.99313 -73.37080 17044 ft 374 kts 21°
2026-05-09 15:14 41.01720 -73.35561 17381 ft 392 kts 20°
2026-05-09 15:14 41.04251 -73.34015 17735 ft 410 kts 19°
2026-05-09 15:14 41.06906 -73.32424 18066 ft 427 kts 19°
2026-05-09 15:14 41.09675 -73.30778 18378 ft 444 kts 19°
2026-05-09 15:15 41.12530 -73.29081 18745 ft 457 kts 19°
2026-05-09 15:15 41.14456 -73.27935 19162 ft 460 kts 19°
2026-05-09 15:15 41.18371 -73.25607 20126 ft 464 kts 19°
2026-05-09 15:15 41.21331 -73.23851 20699 ft 467 kts 19°
2026-05-09 15:16 41.24309 -73.22080 20970 ft 469 kts 19°
2026-05-09 15:16 41.27287 -73.20309 20977 ft 469 kts 19°
2026-05-09 15:16 41.30259 -73.18540 20992 ft 469 kts 19°
2026-05-09 15:16 41.33235 -73.16766 20999 ft 469 kts 19°
2026-05-09 15:17 41.36073 -73.14577 20962 ft 477 kts 36°
2026-05-09 15:17 41.38254 -73.11228 20991 ft 482 kts 58°
2026-05-09 15:17 41.39469 -73.07103 20993 ft 481 kts 78°
2026-05-09 15:17 41.39951 -73.02703 21006 ft 481 kts 86°
2026-05-09 15:18 41.40243 -72.98257 21002 ft 482 kts 87°
2026-05-09 15:18 41.40545 -72.93800 20976 ft 483 kts 86°
2026-05-09 15:18 41.40906 -72.89329 20985 ft 485 kts 85°
2026-05-09 15:18 41.41319 -72.84876 20988 ft 485 kts 84°
2026-05-09 15:19 41.41767 -72.80415 20988 ft 485 kts 84°
2026-05-09 15:19 41.42232 -72.75953 20990 ft 486 kts 83°
2026-05-09 15:19 41.42701 -72.71497 20990 ft 486 kts 83°
2026-05-09 15:19 41.43172 -72.67046 20985 ft 485 kts 83°
2026-05-09 15:20 41.43485 -72.64088 20992 ft 485 kts 83°
2026-05-09 15:20 41.44422 -72.55149 20982 ft 487 kts 83°
2026-05-09 15:20 41.44887 -72.50665 20987 ft 488 kts 83°
2026-05-09 15:21 41.45352 -72.46182 20989 ft 487 kts 83°
2026-05-09 15:21 41.45815 -72.41699 20986 ft 487 kts 83°
2026-05-09 15:21 41.46275 -72.37215 20991 ft 488 kts 83°
2026-05-09 15:21 41.46733 -72.32728 20995 ft 488 kts 83°
2026-05-09 15:22 41.47188 -72.28243 20992 ft 487 kts 83°
2026-05-09 15:22 41.47717 -72.23771 20971 ft 489 kts 78°
2026-05-09 15:22 41.48617 -72.19387 21000 ft 490 kts 70°
2026-05-09 15:22 41.49916 -72.15188 21000 ft 489 kts 63°
2026-05-09 15:23 41.51414 -72.11120 21001 ft 488 kts 62°
2026-05-09 15:23 41.52954 -72.07079 21001 ft 487 kts 61°
2026-05-09 15:23 41.54478 -72.03030 20822 ft 486 kts 62°
2026-05-09 15:23 41.55920 -71.98945 20258 ft 484 kts 65°
2026-05-09 15:24 41.57178 -71.94867 19908 ft 477 kts 67°
2026-05-09 15:24 41.58396 -71.90760 19533 ft 473 kts 68°
2026-05-09 15:24 41.59595 -71.86690 19105 ft 469 kts 68°
2026-05-09 15:24 41.60785 -71.82653 18729 ft 462 kts 68°
2026-05-09 15:25 41.61956 -71.78683 18365 ft 454 kts 68°
2026-05-09 15:25 41.63106 -71.74782 17935 ft 446 kts 68°
2026-05-09 15:25 41.64233 -71.70956 17519 ft 438 kts 68°
2026-05-09 15:26 41.66412 -71.63542 16663 ft 418 kts 68°
2026-05-09 15:26 41.67456 -71.59982 16130 ft 402 kts 68°
2026-05-09 15:26 41.68461 -71.56552 15872 ft 392 kts 68°
2026-05-09 15:26 41.69448 -71.53178 15922 ft 384 kts 68°
2026-05-09 15:27 41.70417 -71.49861 15810 ft 381 kts 68°
2026-05-09 15:27 41.71381 -71.46572 15508 ft 377 kts 67°
2026-05-09 15:27 41.72416 -71.43371 15039 ft 370 kts 64°
2026-05-09 15:27 41.73563 -71.40330 14539 ft 360 kts 60°
2026-05-09 15:28 41.74774 -71.37466 14179 ft 346 kts 58°
2026-05-09 15:28 41.75967 -71.34711 13896 ft 340 kts 58°
2026-05-09 15:28 41.77151 -71.31974 13507 ft 338 kts 59°
2026-05-09 15:28 41.78324 -71.29247 13137 ft 335 kts 59°
2026-05-09 15:29 41.79482 -71.26542 12784 ft 334 kts 59°
2026-05-09 15:29 41.80637 -71.23835 12431 ft 334 kts 59°
2026-05-09 15:29 41.81789 -71.21127 12094 ft 333 kts 60°
2026-05-09 15:29 41.82936 -71.18428 11739 ft 333 kts 60°
2026-05-09 15:30 41.84081 -71.15732 11397 ft 332 kts 60°
2026-05-09 15:30 41.85221 -71.13047 11049 ft 330 kts 60°
2026-05-09 15:30 41.86364 -71.10372 10853 ft 330 kts 60°
2026-05-09 15:30 41.87519 -71.07699 10883 ft 332 kts 60°
2026-05-09 15:31 41.88684 -71.05008 10908 ft 333 kts 59°
2026-05-09 15:31 41.89849 -71.02314 10935 ft 333 kts 59°
2026-05-09 15:31 41.91014 -70.99621 10944 ft 333 kts 60°
2026-05-09 15:31 41.92174 -70.96931 10895 ft 334 kts 60°
2026-05-09 15:32 41.93329 -70.94248 10664 ft 328 kts 60°
2026-05-09 15:32 41.94451 -70.91640 10530 ft 316 kts 60°
2026-05-09 15:32 41.95531 -70.89133 10431 ft 303 kts 60°
2026-05-09 15:32 41.96569 -70.86711 10317 ft 298 kts 59°
2026-05-09 15:33 41.97597 -70.84305 10239 ft 296 kts 59°
2026-05-09 15:33 41.98628 -70.81902 10154 ft 297 kts 59°
2026-05-09 15:33 41.99662 -70.79495 10078 ft 297 kts 59°
2026-05-09 15:33 42.00727 -70.77120 10010 ft 297 kts 55°
2026-05-09 15:34 42.01954 -70.74880 9964 ft 297 kts 48°
2026-05-09 15:34 42.03312 -70.72786 9787 ft 296 kts 45°
2026-05-09 15:34 42.04696 -70.70749 9583 ft 295 kts 45°
2026-05-09 15:34 42.06080 -70.68718 9267 ft 294 kts 45°
2026-05-09 15:35 42.07450 -70.66689 8963 ft 292 kts 45°
2026-05-09 15:35 42.08800 -70.64674 8715 ft 288 kts 46°
2026-05-09 15:35 42.10152 -70.62715 8468 ft 283 kts 37°
2026-05-09 15:35 42.11778 -70.61314 8164 ft 273 kts 14°
2026-05-09 15:36 42.13541 -70.60648 7925 ft 263 kts
2026-05-09 15:36 42.15314 -70.60200 7696 ft 256 kts
2026-05-09 15:36 42.17058 -70.59783 7426 ft 252 kts
2026-05-09 15:36 42.18775 -70.59354 7168 ft 249 kts
2026-05-09 15:37 42.20462 -70.58909 6890 ft 245 kts
2026-05-09 15:37 42.22116 -70.58460 6653 ft 240 kts
2026-05-09 15:37 42.23739 -70.58014 6397 ft 236 kts
2026-05-09 15:37 42.25330 -70.57573 6129 ft 233 kts
2026-05-09 15:38 42.26910 -70.57134 5879 ft 230 kts
2026-05-09 15:38 42.28475 -70.56699 5645 ft 229 kts
2026-05-09 15:38 42.30028 -70.56266 5409 ft 227 kts
2026-05-09 15:38 42.31571 -70.55933 5169 ft 220 kts 352°
2026-05-09 15:39 42.33017 -70.56359 5007 ft 208 kts 326°
2026-05-09 15:39 42.34164 -70.57463 4986 ft 200 kts 309°
2026-05-09 15:39 42.35146 -70.58744 4967 ft 192 kts 307°
2026-05-09 15:39 42.36074 -70.60009 5021 ft 188 kts 307°
2026-05-09 15:40 42.36992 -70.61255 5001 ft 186 kts 308°
2026-05-09 15:40 42.37914 -70.62486 5001 ft 186 kts 308°
2026-05-09 15:40 42.38838 -70.63716 5024 ft 186 kts 308°
2026-05-09 15:40 42.39764 -70.64939 5037 ft 187 kts 308°
2026-05-09 15:41 42.40696 -70.66170 5035 ft 187 kts 308°
2026-05-09 15:41 42.41629 -70.67401 5029 ft 187 kts 308°
2026-05-09 15:41 42.42560 -70.68630 5019 ft 187 kts 308°
2026-05-09 15:41 42.43491 -70.69858 5016 ft 187 kts 308°
2026-05-09 15:42 42.44421 -70.71082 5018 ft 187 kts 308°
2026-05-09 15:42 42.45353 -70.72310 5018 ft 186 kts 308°
2026-05-09 15:42 42.46282 -70.73536 5018 ft 186 kts 308°
2026-05-09 15:42 42.47211 -70.74761 5017 ft 186 kts 308°
2026-05-09 15:43 42.48142 -70.75990 5012 ft 187 kts 308°
2026-05-09 15:43 42.49075 -70.77224 5015 ft 188 kts 308°
2026-05-09 15:43 42.50011 -70.78460 5016 ft 188 kts 308°
2026-05-09 15:43 42.50945 -70.79694 5018 ft 188 kts 308°
2026-05-09 15:44 42.51979 -70.80802 5014 ft 195 kts 325°
2026-05-09 15:44 42.53300 -70.81347 5016 ft 203 kts 348°
2026-05-09 15:44 42.54729 -70.81164 5015 ft 211 kts 10°
2026-05-09 15:44 42.56129 -70.80527 5024 ft 213 kts 16°
2026-05-09 15:45 42.57516 -70.79801 5019 ft 214 kts 17°
2026-05-09 15:45 42.58902 -70.79071 5031 ft 214 kts 17°
2026-05-09 15:45 42.60276 -70.78371 5022 ft 214 kts 17°
2026-05-09 15:45 42.61668 -70.77666 5023 ft 214 kts 17°
2026-05-09 15:46 42.63063 -70.76961 4884 ft 214 kts 17°
2026-05-09 15:46 42.64468 -70.76261 4577 ft 214 kts 17°
2026-05-09 15:46 42.65902 -70.75924 4245 ft 207 kts 347°
2026-05-09 15:46 42.67124 -70.76738 4013 ft 192 kts 305°
2026-05-09 15:47 42.67615 -70.78325 4027 ft 179 kts 265°
2026-05-09 15:47 42.67390 -70.79951 4042 ft 174 kts 249°
2026-05-09 15:47 42.66985 -70.81502 4025 ft 173 kts 240°
2026-05-09 15:47 42.66192 -70.82654 4017 ft 169 kts 212°
2026-05-09 15:48 42.65169 -70.83448 4026 ft 170 kts 210°
2026-05-09 15:48 42.64150 -70.84264 4028 ft 170 kts 211°
2026-05-09 15:48 42.63135 -70.85095 4020 ft 170 kts 211°
2026-05-09 15:48 42.62122 -70.85924 4021 ft 170 kts 211°
2026-05-09 15:49 42.61104 -70.86760 4018 ft 170 kts 211°
2026-05-09 15:49 42.60093 -70.87590 4020 ft 170 kts 212°
2026-05-09 15:49 42.59144 -70.88540 4034 ft 169 kts 218°
2026-05-09 15:49 42.58205 -70.89473 4023 ft 167 kts 212°
2026-05-09 15:50 42.57184 -70.90240 4026 ft 168 kts 206°
2026-05-09 15:50 42.56118 -70.90884 4003 ft 168 kts 204°
2026-05-09 15:50 42.55041 -70.91473 3779 ft 163 kts 201°
2026-05-09 15:50 42.54005 -70.92007 3553 ft 158 kts 200°
2026-05-09 15:51 42.52975 -70.92521 3340 ft 158 kts 199°
2026-05-09 15:51 42.51942 -70.93027 3137 ft 158 kts 198°
2026-05-09 15:51 42.50909 -70.93527 2942 ft 157 kts 198°
2026-05-09 15:51 42.49880 -70.94024 2729 ft 156 kts 197°
2026-05-09 15:52 42.47836 -70.95011 2301 ft 155 kts 197°
2026-05-09 15:52 42.46823 -70.95503 2070 ft 155 kts 196°
2026-05-09 15:52 42.45812 -70.95992 1851 ft 154 kts 195°
2026-05-09 15:53 42.44809 -70.96477 1637 ft 153 kts 195°
2026-05-09 15:53 42.43807 -70.96962 1423 ft 152 kts 195°
2026-05-09 15:53 42.42810 -70.97446 1202 ft 152 kts 196°
2026-05-09 15:53 42.41815 -70.97927 958 ft 151 kts 197°
2026-05-09 15:54 42.40825 -70.98412 742 ft 151 kts 197°
2026-05-09 15:54 42.39838 -70.98888 521 ft 151 kts 197°
2026-05-09 15:54 42.38844 -70.99356 334 ft 152 kts 198°
2026-05-09 15:54 42.37848 -70.99852 123 ft 154 kts 199°
2026-05-09 15:55 42.36885 -71.00324 34 ft 124 kts 199°
2026-05-09 15:55 42.36329 -71.00592 34 ft 48 kts 200°
2026-05-09 15:55 42.36064 -71.00729 35 ft 40 kts 207°
2026-05-09 15:55 42.35885 -71.00969 34 ft 32 kts 230°
2026-05-09 15:56 42.35837 -71.01164 34 ft 14 kts 277°
2026-05-09 15:56 42.35843 -71.01231 34 ft 0 kts 278°
2026-05-09 15:56 42.35845 -71.01245 34 ft 4 kts 278°
2026-05-09 15:56 42.35851 -71.01307 34 ft 10 kts 278°
2026-05-09 15:57 42.35864 -71.01419 34 ft 14 kts 280°
2026-05-09 15:57 42.35883 -71.01513 34 ft 9 kts 313°
2026-05-09 15:57 42.35950 -71.01521 34 ft 12 kts 17°
2026-05-09 15:57 42.36041 -71.01477 34 ft 16 kts 20°
2026-05-09 15:58 42.36149 -71.01424 34 ft 17 kts 19°
2026-05-09 15:58 42.36269 -71.01366 34 ft 18 kts 20°
2026-05-09 15:58 42.36391 -71.01306 34 ft 20 kts 20°
2026-05-09 15:58 42.36515 -71.01247 34 ft 19 kts 19°
2026-05-09 15:59 42.36624 -71.01195 34 ft 17 kts 19°
2026-05-09 15:59 42.36722 -71.01150 34 ft 8 kts 15°
2026-05-09 15:59 42.36789 -71.01156 34 ft 12 kts 334°
2026-05-09 15:59 42.36858 -71.01239 34 ft 15 kts 315°
2026-05-09 16:00 42.36937 -71.01344 34 ft 17 kts 315°
2026-05-09 16:00 42.36967 -71.01384 33 ft 19 kts 315°
2026-05-09 16:00 42.37110 -71.01576 34 ft 16 kts 315°
2026-05-09 16:00 42.37188 -71.01681 34 ft 15 kts 315°
2026-05-09 16:01 42.37245 -71.01758 32 ft 9 kts 315°
2026-05-09 16:01 42.37290 -71.01818 34 ft 6 kts 312°
2026-05-09 16:01 42.37287 -71.01878 34 ft 9 kts 236°
2026-05-09 16:01 42.37244 -71.01937 34 ft 8 kts 237°
2026-05-09 16:02 42.37235 -71.02026 34 ft 9 kts 274°
2026-05-09 16:02 42.37183 -71.02090 34 ft 7 kts 178°
2026-05-09 16:02 42.37158 -71.02088 34 ft 1 kts 177°
2026-05-09 16:03 42.37153 -71.02088 34 ft 0 kts 177°